GW3217 Weather Reports


time (UTC)temp
F
wind
direction
speed
knots
gust
knots
rain 1hr
in
rain 24hr
in
rain mn
in
humidity
%
barometer
mb
20260506122958 58 237 0.0 0.0 0.00 0.00 0.00 92 1011.4
20260506122455 58 44 0.9 0.9 0.00 0.00 0.00 92 1011.7
20260506121953 57 52 0.0 0.0 0.00 0.00 0.00 92 1011.7
20260506121450 57 122 0.0 0.0 0.00 0.00 0.00 92 1011.9
20260506120946 57 220 0.0 0.0 0.00 0.00 0.00 92 1012.0
20260506120444 57 239 0.9 0.9 0.00 0.00 0.00 92 1012.0
20260506115941 58 222 0.0 0.9 0.00 0.00 0.00 92 1012.2
20260506115439 57 204 0.0 0.0 0.00 0.00 0.00 92 1012.1
20260506114937 57 241 0.0 0.0 0.00 0.00 0.00 93 1012.1
20260506114434 57 348 0.0 0.9 0.00 0.00 0.00 93 1011.9
20260506113933 56 210 0.0 0.0 0.00 0.00 0.00 93 1011.8
20260506113430 56 221 0.0 0.0 0.00 0.00 0.00 94 1011.8
20260506112926 56 74 0.9 1.7 0.00 0.00 0.00 94 1011.9
20260506112424 56 244 0.0 0.0 0.00 0.00 0.00 95 1011.9
20260506111921 56 238 0.0 0.0 0.00 0.00 0.00 95 1012.0
20260506111419 55 358 0.9 1.7 0.00 0.00 0.00 95 1011.9
20260506110916 55 213 0.0 0.0 0.00 0.00 0.00 95 1012.0
20260506110414 55 89 0.9 0.9 0.00 0.00 0.00 95 1012.1
20260506105910 55 240 0.0 0.0 0.00 0.00 0.00 95 1012.4
20260506105407 55 207 0.0 0.0 0.00 0.00 0.00 95 1012.1
20260506104904 55 203 0.0 0.0 0.00 0.00 0.00 95 1012.1
20260506104402 55 110 1.7 1.7 0.00 0.00 0.00 95 1011.8
20260506103900 55 30 1.7 1.7 0.00 0.00 0.00 96 1012.1
20260506103357 55 217 0.9 1.7 0.00 0.00 0.00 96 1011.8
20260506102854 55 121 0.9 1.7 0.00 0.00 0.00 96 1011.9
20260506102352 54 207 0.0 0.0 0.00 0.00 0.00 96 1011.8
20260506101849 54 161 0.0 0.0 0.00 0.00 0.00 96 1011.7
20260506101345 54 145 0.9 0.9 0.00 0.00 0.00 96 1011.8
20260506100843 54 121 0.0 0.9 0.00 0.00 0.00 96 1011.7
20260506100341 54 215 0.0 0.0 0.00 0.00 0.00 97 1012.0
20260506095839 54 271 0.0 0.0 0.00 0.00 0.00 97 1012.0
20260506095336 53 156 0.0 0.0 0.00 0.00 0.00 97 1012.0
20260506094833 53 179 1.7 1.7 0.00 0.00 0.00 97 1011.7
20260506094332 53 243 0.0 0.0 0.00 0.00 0.00 97 1011.7
20260506093829 53 179 0.0 0.0 0.00 0.00 0.00 97 1011.7
20260506093326 53 169 0.0 0.9 0.00 0.00 0.00 97 1011.8
20260506092824 53 197 0.9 0.9 0.00 0.00 0.00 96 1011.7
20260506092321 53 188 0.0 0.0 0.00 0.00 0.00 96 1011.9
20260506091818 53 65 0.9 1.7 0.00 0.00 0.00 96 1011.9
20260506091316 53 229 0.0 0.0 0.00 0.00 0.00 95 1011.8
20260506090813 54 130 0.0 0.9 0.00 0.00 0.00 95 1011.9
20260506090310 54 95 0.9 0.9 0.00 0.00 0.00 95 1011.8
20260506085807 54 105 0.9 1.7 0.00 0.00 0.00 95 1011.9
20260506085305 54 150 0.0 0.0 0.00 0.00 0.00 95 1011.9
20260506084800 54 188 0.0 0.0 0.00 0.00 0.00 94 1012.0
20260506084256 54 160 0.0 0.0 0.00 0.00 0.00 94 1012.0
20260506083753 54 224 0.0 0.0 0.00 0.00 0.00 94 1012.1
20260506083251 54 173 0.0 0.9 0.00 0.00 0.00 93 1012.1
20260506082748 54 201 0.9 1.7 0.00 0.00 0.00 93 1012.2
20260506082243 55 122 0.0 0.0 0.00 0.00 0.00 92 1012.0
20260506081741 55 232 1.7 2.6 0.00 0.00 0.00 92 1012.1
20260506081239 55 46 0.0 0.9 0.00 0.00 0.00 92 1011.9
20260506080737 55 203 0.0 0.0 0.00 0.00 0.00 91 1012.0
20260506080233 55 140 0.0 0.9 0.00 0.00 0.00 91 1012.0
20260506073217 56 140 0.0 0.0 0.00 0.00 0.00 88 1011.8
20260506072714 56 182 1.7 2.6 0.00 0.00 0.00 88 1011.8
20260506072211 56 133 1.7 2.6 0.00 0.00 0.00 87 1012.1
20260506071709 57 210 0.9 1.7 0.00 0.00 0.00 86 1012.2
20260506071207 57 71 2.6 2.6 0.00 0.00 0.00 86 1012.1
20260506070703 57 33 0.0 0.9 0.00 0.00 0.00 85 1012.0
20260506070200 57 156 0.9 0.9 0.00 0.00 0.00 84 1012.4
20260506062137 60 231 0.0 0.0 0.00 0.00 0.00 79 1012.3
20260506061633 59 238 0.0 0.0 0.00 0.00 0.00 79 1012.0
20260506061131 60 208 0.0 0.0 0.00 0.00 0.00 79 1012.0
20260506060629 60 221 0.0 0.0 0.00 0.00 0.00 79 1012.1
20260506060126 59 93 0.0 0.0 0.00 0.00 0.00 79 1012.1
20260506051058 60 201 0.0 0.0 0.00 0.00 0.00 78 1012.7
20260506050556 60 222 0.9 1.7 0.00 0.00 0.00 77 1012.8
20260506045046 61 87 0.0 0.0 0.00 0.00 0.00 76 1012.7
20260506044544 61 36 1.7 2.6 0.00 0.00 0.00 76 1012.8
20260506044041 61 200 0.0 0.0 0.00 0.00 0.00 76 1012.8
20260506043538 61 175 0.0 0.0 0.00 0.00 0.00 76 1012.7
20260506043036 61 36 0.0 0.0 0.00 0.00 0.00 76 1012.6
20260506042535 61 186 0.0 0.0 0.00 0.00 0.00 75 1012.4
20260506042032 61 80 0.0 0.0 0.00 0.00 0.00 75 1012.4
20260506041531 61 210 0.0 0.9 0.00 0.00 0.00 75 1012.7
20260506041027 61 57 0.0 0.9 0.00 0.00 0.00 75 1012.7
20260506040525 61 25 0.0 0.9 0.00 0.00 0.00 75 1012.7
20260506040021 62 228 0.0 0.0 0.00 0.00 0.00 74 1012.7
20260506035518 62 62 0.9 0.9 0.00 0.00 0.00 74 1012.5
20260506035015 62 222 0.0 0.0 0.00 0.00 0.00 74 1012.6
20260506034512 62 96 1.7 2.6 0.00 0.00 0.00 74 1012.4
20260506034009 62 241 0.0 0.0 0.00 0.00 0.00 73 1012.7
20260506033507 62 60 0.0 0.0 0.00 0.00 0.00 73 1012.4
20260506033004 62 216 0.0 0.0 0.00 0.00 0.00 73 1012.8
20260506032501 62 232 0.0 0.0 0.00 0.00 0.00 73 1012.6
20260506031956 62 318 0.0 0.0 0.00 0.00 0.00 73 1012.5
20260506031455 62 261 0.0 0.0 0.00 0.00 0.00 72 1012.7
20260506030952 62 54 0.9 1.7 0.00 0.00 0.00 73 1012.6
20260506030450 62 167 0.0 0.0 0.00 0.00 0.00 74 1012.7
20260506025946 62 246 0.9 1.7 0.00 0.00 0.00 73 1012.8
20260506025443 61 295 0.0 0.0 0.00 0.00 0.00 73 1012.6
20260506024940 61 133 0.0 0.0 0.00 0.00 0.00 74 1012.4
20260506024437 61 194 0.0 0.0 0.00 0.00 0.00 74 1012.3
20260506023932 62 233 0.0 0.0 0.00 0.00 0.00 73 1012.5
20260506023430 62 113 2.6 3.5 0.00 0.00 0.00 73 1012.6
20260506022926 62 212 0.0 0.0 0.00 0.00 0.00 73 1012.5
20260506022424 62 316 0.9 0.9 0.00 0.00 0.00 72 1012.5
20260506021922 62 119 0.0 0.0 0.00 0.00 0.00 72 1012.5
20260506021419 62 6 0.0 0.9 0.00 0.00 0.00 72 1012.6
20260506020915 62 183 0.0 0.0 0.00 0.00 0.00 72 1012.4
20260506020414 62 299 1.7 2.6 0.00 0.00 0.00 71 1012.5
20260506015910 63 15 0.0 0.0 0.00 0.00 0.00 71 1012.5
20260506015408 63 198 2.6 2.6 0.00 0.00 0.00 70 1012.5
20260506014904 63 205 0.0 0.0 0.00 0.00 0.00 70 1012.6
20260506014402 64 210 0.0 0.0 0.00 0.00 0.00 68 1012.3
20260506013858 64 218 0.0 0.0 0.00 0.00 0.00 68 1012.4
20260506013356 64 198 0.0 0.0 0.00 0.00 0.00 67 1012.2
20260506012852 65 228 0.0 0.0 0.00 0.00 0.00 66 1012.0
20260506012349 65 208 0.0 0.0 0.00 0.00 0.00 65 1012.0
20260506011846 65 106 0.9 1.7 0.00 0.00 0.00 64 1011.9
20260506011343 66 226 0.0 0.0 0.00 0.00 0.00 63 1011.8
20260506010840 66 213 0.0 0.0 0.00 0.00 0.00 63 1011.8
20260506010338 66 210 0.0 0.0 0.00 0.00 0.00 64 1011.8
20260506005835 66 157 0.9 1.7 0.00 0.00 0.00 61 1011.7
20260506005331 66 187 0.0 0.0 0.00 0.00 0.00 62 1011.5
20260506004827 66 239 0.0 0.0 0.00 0.00 0.00 63 1011.8
20260506004325 66 163 0.9 0.9 0.00 0.00 0.00 62 1011.7
20260506003821 66 222 0.0 0.0 0.00 0.00 0.00 63 1011.6
20260506003318 66 52 0.0 0.9 0.00 0.00 0.00 62 1011.5
20260506002814 66 166 0.0 0.0 0.00 0.00 0.00 63 1011.5
20260506002311 66 16 0.0 0.0 0.00 0.00 0.00 62 1011.4
20260506001806 66 237 0.0 0.0 0.00 0.00 0.00 63 1011.5
20260506001304 66 212 0.0 0.0 0.00 0.00 0.00 63 1011.4
20260506000801 66 178 0.9 0.9 0.00 0.00 0.00 62 1011.3
20260506000258 67 102 0.0 0.0 0.00 0.00 0.00 62 1011.3
20260505235755 67 128 1.7 2.6 0.00 0.00 0.00 60 1011.1
20260505235253 68 191 0.9 1.7 0.00 0.00 0.00 60 1011.2
20260505234749 68 159 0.0 0.0 0.00 0.00 0.00 59 1010.9
20260505234247 68 171 0.0 0.9 0.00 0.00 0.00 59 1011.1
20260505233743 68 68 0.0 0.9 0.00 0.00 0.00 59 1010.7
20260505233241 68 178 0.0 0.0 0.00 0.00 0.00 59 1010.9
20260505232738 69 120 0.0 0.9 0.00 0.00 0.00 59 1011.0
20260505232236 69 226 0.0 0.0 0.00 0.00 0.00 58 1010.6
20260505231732 69 155 1.7 2.6 0.00 0.00 0.00 57 1010.9
20260505231231 69 225 0.0 0.0 0.00 0.00 0.00 57 1010.6
20260505230729 69 203 0.0 0.0 0.00 0.00 0.00 57 1010.3
20260505230225 70 233 0.0 0.0 0.00 0.00 0.00 56 1010.4
20260505225722 70 359 1.7 2.6 0.00 0.00 0.00 55 1010.2
20260505225219 70 221 1.7 1.7 0.00 0.00 0.00 56 1010.3
20260505224714 71 125 1.7 2.6 0.00 0.00 0.00 55 1010.0
20260505224212 70 68 4.3 7.8 0.00 0.00 0.00 55 1010.3
20260505223710 71 163 1.7 1.7 0.00 0.00 0.00 55 1010.2
20260505223205 71 148 0.9 0.9 0.00 0.00 0.00 55 1010.1
20260505222702 72 145 2.6 5.2 0.00 0.00 0.00 54 1010.1
20260505222158 73 218 0.9 1.7 0.00 0.00 0.00 54 1010.0
20260505221655 73 73 0.9 0.9 0.00 0.00 0.00 53 1009.8
20260505221152 73 196 0.0 0.0 0.00 0.00 0.00 55 1010.0
20260505220649 74 31 2.6 2.6 0.00 0.00 0.00 53 1009.7
20260505220147 73 212 0.9 0.9 0.00 0.00 0.00 53 1009.7
20260505215644 73 204 0.0 0.0 0.00 0.00 0.00 54 1010.0
20260505215142 74 231 0.0 0.9 0.00 0.00 0.00 52 1010.1
20260505214640 74 177 0.9 1.7 0.00 0.00 0.00 54 1009.9
20260505214137 74 280 1.7 2.6 0.00 0.00 0.00 53 1010.0
20260505213634 75 150 0.0 0.0 0.00 0.00 0.00 52 1010.0
20260505213131 75 202 0.0 0.0 0.00 0.00 0.00 50 1009.9
20260505212626 75 111 4.3 6.1 0.00 0.00 0.00 49 1009.9
20260505212125 75 236 0.0 0.0 0.00 0.00 0.00 50 1009.8
20260505211621 76 266 1.7 1.7 0.00 0.00 0.00 49 1009.8
20260505211119 76 235 2.6 2.6 0.00 0.00 0.00 50 1009.5
20260505210615 76 256 0.9 1.7 0.00 0.00 0.00 50 1009.7
20260505210112 76 57 3.5 5.2 0.00 0.00 0.00 48 1009.4
20260505205609 77 278 3.5 3.5 0.00 0.00 0.00 47 1009.6
20260505205107 77 6 2.6 6.1 0.00 0.00 0.00 47 1009.6
20260505204604 77 151 0.9 0.9 0.00 0.00 0.00 49 1009.5
20260505204101 77 176 1.7 2.6 0.00 0.00 0.00 50 1009.7
20260505203558 77 113 1.7 2.6 0.00 0.00 0.00 47 1009.6
20260505203055 76 297 1.7 1.7 0.00 0.00 0.00 48 1009.8
20260505202551 77 247 0.0 0.9 0.00 0.00 0.00 47 1010.0
20260505202047 78 248 1.7 2.6 0.00 0.00 0.00 46 1010.1
20260505201544 78 193 1.7 2.6 0.00 0.00 0.00 45 1010.0
20260505201042 78 316 1.7 2.6 0.00 0.00 0.00 44 1009.8
20260505200539 78 259 4.3 6.1 0.00 0.00 0.00 43 1009.7
20260505200036 78 244 2.6 2.6 0.00 0.00 0.00 43 1009.7
20260505195532 79 139 3.5 5.2 0.00 0.00 0.00 43 1009.7
20260505195030 79 290 1.7 1.7 0.00 0.00 0.00 44 1010.0
20260505194527 79 347 0.0 0.0 0.00 0.00 0.00 46 1009.9
20260505194022 79 123 2.6 5.2 0.00 0.00 0.00 45 1010.2
20260505193520 78 294 0.0 0.9 0.00 0.00 0.00 47 1010.0
20260505193017 79 235 0.9 0.9 0.00 0.00 0.00 48 1010.3
20260505192516 79 245 1.7 2.6 0.00 0.00 0.00 47 1010.1
20260505192013 79 250 0.0 0.0 0.00 0.00 0.00 47 1010.0
20260505191511 80 241 2.6 2.6 0.00 0.00 0.00 44 1010.4
20260505191008 78 259 1.7 2.6 0.00 0.00 0.00 44 1010.2
20260505190503 78 276 1.7 2.6 0.00 0.00 0.00 44 1010.2
20260505185958 78 319 5.2 7.0 0.00 0.00 0.00 43 1010.5
20260505185456 78 206 3.5 3.5 0.00 0.00 0.00 44 1010.5
20260505184952 79 275 1.7 2.6 0.00 0.00 0.00 43 1010.6
20260505184449 79 308 0.9 0.9 0.00 0.00 0.00 45 1011.0
20260505183945 78 232 0.9 1.7 0.00 0.00 0.00 46 1010.7
20260505183443 78 171 1.7 1.7 0.00 0.00 0.00 46 1011.0
20260505182939 78 87 2.6 3.5 0.00 0.00 0.00 46 1010.9
20260505182436 78 234 5.2 7.0 0.00 0.00 0.00 45 1010.9
20260505181932 78 252 3.5 3.5 0.00 0.00 0.00 48 1010.6
20260505181430 77 236 0.0 0.0 0.00 0.00 0.00 54 1011.1
20260505180927 77 259 1.7 2.6 0.00 0.00 0.00 48 1010.9
20260505180423 77 230 0.9 1.7 0.00 0.00 0.00 49 1011.2
20260505175920 77 69 0.9 3.5 0.00 0.00 0.00 50 1010.9
20260505175416 77 224 0.0 0.0 0.00 0.00 0.00 48 1011.0
20260505174912 76 261 0.9 1.7 0.00 0.00 0.00 50 1011.1
20260505174410 76 290 3.5 5.2 0.00 0.00 0.00 51 1011.2
20260505173906 77 253 0.9 0.9 0.00 0.00 0.00 49 1011.2
20260505173402 77 200 0.9 1.7 0.00 0.00 0.00 47 1011.1
20260505172859 76 242 0.0 0.9 0.00 0.00 0.00 52 1011.2
20260505172357 77 284 2.6 2.6 0.00 0.00 0.00 49 1011.6
20260505171857 77 354 0.9 3.5 0.00 0.00 0.00 49 1011.4
20260505171354 77 288 2.6 2.6 0.00 0.00 0.00 49 1011.4
20260505170850 76 105 3.5 5.2 0.00 0.00 0.00 51 1011.4
20260505170348 76 242 0.9 0.9 0.00 0.00 0.00 48 1011.5
20260505165842 76 226 1.7 2.6 0.00 0.00 0.00 50 1011.6
20260505165338 74 247 1.7 2.6 0.00 0.00 0.00 50 1011.8
20260505164834 75 220 0.9 1.7 0.00 0.00 0.00 51 1011.6
20260505164331 75 187 0.0 0.9 0.00 0.00 0.00 51 1012.0
20260505163829 75 284 1.7 2.6 0.00 0.00 0.00 51 1012.1
20260505163328 75 299 4.3 5.2 0.00 0.00 0.00 50 1012.0
20260505162826 75 63 0.9 1.7 0.00 0.00 0.00 50 1012.2
20260505162322 74 63 0.0 0.9 0.00 0.00 0.00 56 1012.4
20260505161819 74 74 1.7 3.5 0.00 0.00 0.00 51 1012.5
20260505161316 73 26 1.7 1.7 0.00 0.00 0.00 52 1012.3
20260505160814 74 288 1.7 5.2 0.00 0.00 0.00 52 1012.3
20260505160312 74 90 1.7 2.6 0.00 0.00 0.00 55 1012.3
20260505153250 71 333 2.6 3.5 0.00 0.00 0.00 57 1012.6
20260505152747 70 234 0.0 0.9 0.00 0.00 0.00 60 1012.6
20260505152244 71 248 1.7 1.7 0.00 0.00 0.00 58 1012.8
20260505151738 71 275 3.5 3.5 0.00 0.00 0.00 58 1012.8
20260505151236 70 259 1.7 2.6 0.00 0.00 0.00 60 1012.8
20260505150732 70 92 1.7 2.6 0.00 0.00 0.00 58 1012.8
20260505150230 70 267 1.7 1.7 0.00 0.00 0.00 58 1012.7
20260505140154 67 64 0.0 0.0 0.00 0.00 0.00 64 1012.9
20260505130118 60 213 0.0 0.0 0.00 0.00 0.00 75 1012.4
20260505124607 58 235 0.0 0.0 0.00 0.00 0.00 81 1012.5
20260505124103 56 293 0.0 0.0 0.00 0.00 0.00 84 1012.4
20260505123600 55 18 0.9 0.9 0.00 0.00 0.00 86 1012.7